Theta_e
326 324 323 325 334 335 337 336 336 335 331 330 332 331 335 336 336 332 331 329 329 329 328 327 325 323 321 320 319 319 316 313 311 312 311 310 311 312 312 311 310 310 311 311
326 328 332 332 333 332 332 334 337 336 333 329 341 339 334 336 336 332 330 329 329 328 325 324 323 322 320 320 319 318 316 313 311 312 312 311 311 311 312 310 310 310 311 310
331 332 333 335 333 334 332 333 335 334 334 331 337 330 338 333 331 330 326 323 327 328 326 324 324 322 321 320 317 317 316 314 312 311 312 313 312 311 309 311 311 311 311 311
331 333 333 334 336 336 337 333 334 332 331 338 333 337 331 334 332 329 325 326 325 328 326 325 323 322 320 318 318 316 315 313 312 312 314 313 313 311 312 312 312 312 311 311
333 331 332 333 334 331 334 333 331 331 330 336 338 332 330 328 333 330 327 324 326 328 326 325 323 321 318 317 316 315 315 314 313 313 314 314 312 311 312 312 312 312 312 311
332 332 332 333 331 331 331 333 330 326 332 338 334 334 332 332 327 330 328 326 326 325 325 323 321 320 317 317 316 315 315 313 312 312 314 312 312 311 312 313 311 311 311 311
335 335 334 331 331 332 331 325 326 327 332 339 332 330 331 331 330 331 328 328 326 324 323 322 321 319 317 316 316 315 314 311 312 313 312 312 313 312 312 311 311 312 311 311
332 334 336 332 332 334 326 325 326 331 330 334 329 333 330 328 328 329 327 325 325 325 324 322 319 319 318 316 315 314 313 311 312 312 313 313 313 313 312 311 312 312 312 311
333 335 332 332 332 328 327 330 325 328 329 331 331 332 327 328 328 328 326 326 325 324 323 320 319 319 316 315 315 313 313 312 312 313 314 314 314 314 312 312 312 313 313 311
334 334 330 330 330 330 329 329 329 328 331 335 334 330 330 329 329 328 327 327 325 324 322 320 318 317 316 315 314 314 314 313 313 314 314 314 314 313 313 313 312 313 312 310
329 327 331 330 330 329 328 329 330 328 331 333 333 329 325 322 321 320 326 327 326 323 320 319 317 316 315 314 314 314 312 312 313 314 315 314 313 312 313 313 313 312 311 311
329 329 333 331 329 328 326 325 329 331 333 329 329 329 323 318 319 319 319 321 321 319 318 317 316 315 314 314 314 313 312 312 314 314 316 315 313 313 313 312 312 312 310 311
328 330 333 334 330 329 327 326 326 329 325 327 329 326 322 320 319 319 319 319 320 319 318 317 316 315 314 314 313 313 312 313 313 313 314 314 313 313 313 312 312 313 312 312
335 330 330 332 330 327 327 326 323 325 327 326 327 324 318 318 318 319 319 319 319 319 317 317 316 315 314 314 314 312 312 314 314 315 315 314 314 313 313 313 314 312 312 312
332 330 327 326 325 325 325 324 321 319 319 321 320 319 319 318 318 319 318 318 317 319 317 316 316 315 314 314 314 313 312 313 314 314 315 315 312 313 313 313 313 314 313 313
334 334 330 329 326 325 325 324 321 320 320 320 319 320 320 321 322 320 319 318 318 318 317 317 316 315 315 315 314 313 313 313 313 314 314 314 314 313 313 312 314 313 313 311
333 335 333 334 331 331 325 323 323 324 324 323 323 321 321 320 322 320 319 318 318 317 318 317 316 315 315 314 314 313 312 313 313 314 312 313 312 312 312 312 313 314 312 313
334 333 333 333 333 326 324 320 324 325 324 323 324 323 322 321 321 321 321 320 319 318 318 318 317 316 315 314 314 313 312 313 314 314 313 313 313 313 312 313 313 312 313 314
333 332 333 332 331 327 326 326 326 325 325 324 324 323 322 321 320 321 320 318 320 320 319 318 317 316 316 315 314 313 312 312 313 314 315 314 312 313 315 314 314 312 310 313
334 335 331 332 331 332 327 324 324 324 328 323 321 321 321 321 320 320 321 317 316 320 320 319 318 318 317 315 314 313 313 313 313 314 315 316 313 311 313 314 314 314 311 312
330 332 333 332 332 329 323 321 323 324 324 321 318 315 317 318 317 315 316 318 317 317 317 318 318 317 318 317 315 314 314 312 313 314 315 316 314 313 313 312 314 315 314 315
330 332 331 330 330 329 320 320 322 320 316 314 313 314 316 315 312 312 312 312 313 313 315 315 315 316 317 318 316 315 314 313 313 314 314 315 315 314 314 314 312 313 315 316
330 329 327 326 324 319 317 316 314 313 312 312 313 312 313 311 311 311 311 312 313 312 309 311 313 314 316 316 317 317 315 315 314 313 313 315 315 315 315 315 312 312 313 313
326 326 324 325 320 318 316 315 314 312 312 311 311 311 311 311 311 311 312 312 312 312 311 310 310 311 314 317 315 314 314 315 315 313 314 314 314 315 315 314 313 313 314 314
324 325 323 323 320 317 316 315 314 312 312 312 312 312 312 312 312 312 311 309 310 312 312 312 312 312 312 316 317 317 317 316 315 315 314 314 314 314 315 315 314 314 314 314
321 322 321 321 318 317 315 315 314 314 313 313 313 312 312 312 312 311 310 310 310 310 311 311 312 312 310 314 315 317 316 316 315 315 314 314 314 314 316 316 316 315 315 315
Wind_Speed
23 1 7 11 9 7 11 5 9 8 6 5 8 18 11 29 20 21 26 23 24 21 19 20 13 7 3 8 14 13 17 21 18 18 17 13 11 12 8 11 18 13 19 18
7 5 19 16 15 12 10 5 8 6 11 5 7 17 7 9 10 19 21 13 16 18 19 15 13 6 3 5 12 15 15 16 18 16 13 12 12 11 8 13 13 15 18 21
5 5 17 15 15 20 17 5 5 8 14 13 13 7 5 4 17 30 30 23 9 12 15 13 9 5 5 7 12 13 14 13 19 14 12 11 11 13 9 10 13 14 19 19
4 5 7 11 8 7 7 13 15 13 3 3 4 2 8 6 11 17 17 10 18 17 17 12 11 8 3 8 7 12 12 13 18 15 13 13 12 13 11 13 14 13 19 19
4 8 4 5 3 10 5 9 10 15 7 7 9 7 7 7 6 9 15 12 19 13 14 14 6 3 5 2 7 8 8 15 16 16 15 15 13 12 10 10 10 11 14 18
3 1 4 4 5 10 7 5 12 5 5 7 10 6 3 3 4 6 10 14 13 1 16 7 4 5 7 4 8 7 12 14 12 14 16 18 14 13 11 13 11 9 11 14
3 1 3 4 6 7 3 5 4 6 5 4 4 9 3 9 3 13 15 12 9 17 8 3 4 4 5 3 4 12 14 17 10 12 14 17 17 17 12 13 10 11 13 12
5 7 4 3 6 4 6 6 3 2 3 3 9 3 3 6 16 15 18 15 18 10 10 9 11 7 3 6 6 7 10 14 10 12 13 16 18 18 12 11 10 13 16 9
4 6 9 6 4 10 6 7 5 3 7 5 1 3 4 6 10 8 12 7 10 14 12 13 5 2 3 3 9 10 10 10 9 10 12 15 17 17 12 12 10 11 13 12
5 4 10 16 18 15 10 9 7 5 4 5 4 5 5 1 6 7 11 10 13 9 14 6 4 5 2 7 5 5 11 8 8 11 13 16 18 14 7 10 11 13 14 9
6 4 6 13 9 14 9 9 6 6 3 3 4 2 5 5 8 8 8 7 12 9 13 7 4 5 3 2 5 4 10 6 7 10 11 17 14 13 10 10 8 12 15 7
3 1 5 13 13 16 11 8 6 4 2 3 4 2 5 10 13 16 14 10 4 9 8 4 2 2 2 1 2 8 8 3 8 12 12 15 13 14 14 16 17 14 12 5
6 4 4 3 5 12 10 9 5 4 3 3 4 3 2 9 11 12 7 5 5 9 3 4 5 3 3 4 3 10 4 3 7 9 8 10 10 13 13 13 13 15 14 14
8 8 10 5 5 5 5 9 10 7 4 8 6 3 7 6 6 12 14 13 3 4 5 3 1 5 6 6 2 7 4 3 6 7 9 11 8 6 8 12 13 11 11 13
7 8 12 8 9 7 5 6 13 12 9 9 6 7 4 4 5 8 8 11 15 13 9 8 7 3 1 2 3 5 5 2 6 9 5 7 9 8 7 8 11 9 8 7
3 3 6 6 8 12 11 13 13 12 11 8 8 8 14 23 16 18 15 13 12 15 12 10 8 5 1 1 3 8 7 7 6 7 6 9 9 8 10 13 8 10 11 5
3 4 3 2 4 5 7 10 9 15 17 11 7 4 18 17 12 14 13 11 11 9 10 9 9 9 9 11 13 13 9 8 9 9 5 6 4 8 7 9 8 10 11 4
5 4 2 3 2 6 3 8 12 18 15 15 13 14 16 18 17 13 21 30 15 12 10 10 11 12 13 13 13 14 11 10 9 9 7 7 8 9 6 6 10 8 9 5
6 3 2 4 2 6 10 16 9 6 7 11 11 16 15 20 19 7 26 31 21 23 18 15 15 12 14 15 14 14 12 10 12 11 8 6 8 5 6 9 12 9 8 5
4 1 7 6 3 2 9 18 25 7 4 20 11 15 17 17 7 7 19 25 27 22 15 18 17 15 17 16 14 14 14 13 12 14 9 11 8 10 9 8 10 11 8 5
5 4 4 1 3 4 11 25 11 7 5 21 18 21 17 13 16 22 24 24 24 26 25 25 22 22 21 20 18 16 13 13 12 13 13 10 13 13 10 10 11 10 11 8
5 3 4 4 4 2 20 12 6 4 14 20 22 24 16 20 26 27 26 28 27 29 27 28 28 21 19 21 21 24 20 9 13 16 15 14 13 14 13 11 11 11 11 12
5 3 3 4 3 4 13 15 14 15 17 18 19 19 21 22 23 25 26 28 26 29 35 31 30 27 22 19 19 20 26 18 13 15 18 15 16 17 16 13 14 14 12 14
5 10 4 4 3 9 9 10 10 11 12 13 15 15 16 18 19 19 22 25 26 31 33 30 33 32 31 23 18 18 16 19 19 13 15 17 17 19 17 18 14 14 12 12
4 4 5 4 7 8 9 6 6 8 10 11 17 15 18 19 17 19 22 26 26 27 29 30 29 34 32 27 19 18 17 18 20 17 14 16 19 19 16 19 17 16 14 14
5 3 2 2 5 4 6 6 8 11 13 14 14 18 19 19 15 18 26 27 26 27 27 27 29 29 31 30 24 13 12 9 14 17 18 16 17 18 17 18 15 18 16 13
Wind_Direction
268 259 270 263 209 84 125 141 164 235 199 83 244 263 96 207 206 165 175 155 156 154 159 145 138 147 50 359 334 325 340 2 8 1 10 22 9 10 9 332 338 350 357 350
17 23 347 8 50 57 42 148 200 228 143 129 102 98 159 210 174 175 144 91 138 150 141 143 139 93 33 341 321 324 328 354 11 3 11 16 4 351 338 342 4 345 358 358
111 262 323 35 28 24 2 332 271 229 160 189 109 50 19 38 54 88 98 95 211 182 159 170 147 137 164 328 329 323 328 351 7 4 354 2 3 349 13 354 359 0 4 4
144 259 327 37 49 56 260 272 283 320 241 113 321 94 28 61 64 104 134 98 191 195 186 167 155 184 339 343 299 323 328 359 10 358 351 345 342 349 357 351 347 360 356 3
20 46 9 51 301 340 264 328 295 302 342 118 1 72 325 18 109 148 186 225 200 199 191 171 183 149 40 74 358 344 356 356 359 351 351 353 349 346 350 342 358 353 352 358
126 23 32 331 309 279 344 288 287 4 98 55 9 92 290 313 199 215 213 222 204 26 163 166 149 86 100 6 8 356 349 356 355 350 6 0 1 355 351 347 343 360 358 348
168 333 109 48 352 323 317 4 358 12 25 91 162 59 313 327 323 215 202 209 178 151 159 190 90 145 90 53 351 334 332 355 11 11 8 358 358 357 352 342 12 1 357 342
348 343 151 166 216 241 343 83 99 4 53 137 11 112 226 296 328 121 145 154 163 168 158 159 147 132 39 325 304 320 348 3 3 16 2 357 347 353 358 15 15 0 351 344
344 351 26 197 65 40 6 16 333 89 102 80 2 228 296 277 292 139 144 113 164 159 172 167 182 242 241 292 312 324 2 15 3 8 353 351 340 336 2 11 2 342 347 353
352 25 24 36 35 27 63 352 24 12 50 102 66 14 333 227 226 200 190 202 172 167 168 148 108 155 265 325 339 39 3 17 19 2 354 348 348 347 346 352 6 353 352 19
19 67 55 60 58 48 16 13 31 102 91 120 142 250 274 1 46 61 113 119 156 188 144 167 217 193 309 23 79 317 353 10 8 352 350 356 11 19 20 15 8 353 0 77
12 54 81 87 71 61 49 35 14 100 291 107 115 220 359 62 64 58 53 94 103 98 141 129 136 167 130 9 286 322 350 76 353 341 7 355 20 39 32 29 27 23 30 62
321 340 121 160 38 40 29 6 13 83 74 47 102 245 305 68 71 79 61 354 165 145 156 305 320 223 224 259 296 349 11 22 2 336 354 3 21 39 25 12 10 32 26 28
81 60 82 106 86 36 34 19 32 63 61 45 93 124 43 41 37 51 36 16 134 44 49 54 19 216 223 210 281 8 11 17 325 351 14 8 17 15 9 3 360 7 18 27
91 93 87 77 112 119 82 67 58 43 21 83 81 72 64 61 52 72 47 33 19 33 38 36 37 14 280 254 357 18 350 279 316 328 331 348 348 349 334 350 351 357 353 14
51 91 86 53 83 78 37 22 74 64 34 46 54 40 22 20 39 59 42 39 24 16 29 26 9 343 274 259 301 331 329 291 316 314 321 334 316 314 333 347 320 339 345 336
80 132 67 106 338 346 30 8 28 64 42 45 42 334 24 14 36 39 12 16 10 346 340 341 353 335 305 299 311 320 317 271 279 295 291 325 310 324 329 340 337 333 346 343
113 89 86 142 256 61 62 21 86 81 41 16 13 6 15 6 3 42 28 357 358 338 318 311 313 308 313 309 310 318 292 270 266 294 278 293 297 320 295 318 326 308 322 350
132 114 136 139 146 134 35 14 345 338 57 19 11 325 352 359 3 346 355 345 336 331 326 306 312 321 294 298 304 305 307 274 261 269 273 283 287 335 338 317 336 339 312 286
26 347 53 355 87 136 360 353 331 339 75 0 355 352 346 355 360 311 355 3 359 338 337 337 329 314 302 286 289 299 295 292 261 264 255 261 274 283 289 311 313 343 330 292
32 47 157 193 107 55 329 2 357 53 311 340 10 2 33 38 23 3 359 0 360 357 345 342 317 305 288 278 288 280 289 281 281 267 274 262 258 277 287 272 315 309 334 315
58 320 30 36 71 43 356 28 63 314 17 10 8 357 27 23 9 4 1 355 1 1 359 351 344 342 310 294 287 275 280 308 277 268 271 256 250 264 279 272 280 296 305 314
45 53 90 49 118 129 62 59 38 35 25 13 4 20 13 12 6 360 358 357 360 0 350 353 355 350 337 324 279 280 269 285 290 268 266 266 257 256 269 269 269 280 288 293
59 71 113 94 77 92 78 56 37 25 18 6 353 354 350 347 348 353 2 3 357 356 2 0 360 356 350 335 307 274 260 275 272 293 275 268 265 264 258 259 254 265 273 284
37 58 114 117 145 146 62 23 28 10 7 7 2 11 1 356 4 2 352 352 350 353 354 354 355 354 354 350 332 303 284 272 257 278 287 274 271 270 265 257 252 257 266 287
45 340 74 97 108 48 320 345 52 21 353 344 348 336 335 337 340 340 342 339 345 353 350 347 353 353 357 359 360 344 333 273 274 278 283 285 279 285 269 262 259 249 260 274